User: anonymous   Login
Location: Unspecified
(0.0000°N, 0.0000°E)
Time: 16:29:49
(UTC+00:00)
Language:

Shinsei - Orbit

View from above orbital plane
View from above orbital plane
View from above satellite
View from above satellite

Ground track
Ground track

The orbit data is extracted from the following two-line orbital elements,

1  5485U 71080A   17204.93663318 +.00000030 +00000-0 +12290-4 0  9992
2  5485 032.0534 124.9402 0640225 151.5135 212.2033 12.74125379134522
Epoch (UTC): 23 July 2017 22:28:45
Eccentricity: 0.0640225
inclination: 32.0534°
perigee height: 869 km
apogee height: 1861 km
right ascension of ascending node: 124.9402°
argument of perigee: 151.5135°
revolutions per day: 12.74125379
mean anomaly at epoch: 212.2033°
orbit number at epoch: 13452

The dashed part of the orbit path shows where the satellite is in the earth's shadow,  

DLR